Date String (YYYY-MM-DD hh:mm:ss) UTC,Instrument flags,absolute air pressure of the measurement (hPa),sample flow rate (lpm),inlet stack bypass flow (lpm),air temperature of the measurement (°C),ambient temperature measured by the external sensor (°C),aerosol sample conditioner tube jacket temperature (°C),OPC LED temperature (°C),internal box temperature (°C),relative humidity of the measurement (%),span deviation,mass concentration of particles derived from Lorenz-Mie calculation of OPC scattering (μg/m³),mass concentration of particles derived from Lorenz-Mie calculation of OPC scattering (μg/m³),mass concentration of particles derived from Lorenz-Mie calculation of OPC scattering (μg/m³)
DateTimeUTC,F1_M11,P_M11,Q1_M11,Q2_M11,T1_M11,T2_M11,T3_M11,T4_M11,T5_M11,U1_M11,ZSPAN_M11,X0_M11,X2_M11,X1_M11
2023-12-30 12:00:00,SystemResetWarning,0830.7,5.00,000.00,021.0,019.7,000.0,029.4,022.3,9.1,0000.0,0008.43,0003.98,0003.51
2023-12-30 12:01:00,SystemResetWarning,0830.5,4.99,000.00,021.0,019.7,000.0,029.4,022.3,9.1,0000.0,0008.49,0003.95,0003.49
2023-12-30 12:02:00,SystemResetWarning,0830.6,4.99,000.00,021.0,019.7,000.0,029.4,022.2,9.1,0000.0,0008.97,0003.93,0003.48
2023-12-30 12:03:00,SystemResetWarning,0830.6,5.00,000.00,021.0,019.7,000.0,029.4,022.3,9.1,0000.0,0009.30,0003.91,0003.48
2023-12-30 12:04:00,SystemResetWarning,0830.5,5.01,000.00,020.9,019.7,000.0,029.4,022.2,9.1,0000.0,0009.49,0003.94,0003.47
2023-12-30 12:05:00,SystemResetWarning,0830.6,5.01,000.00,020.9,019.7,000.0,029.4,022.2,9.1,0000.0,0009.61,0003.96,0003.46
2023-12-30 12:06:00,SystemResetWarning,0830.5,5.00,000.00,020.9,019.7,000.0,029.3,022.2,9.1,0000.0,0008.89,0003.96,0003.45
2023-12-30 12:07:00,SystemResetWarning,0830.5,4.99,000.00,020.9,019.7,000.0,029.3,022.2,9.1,0000.0,0008.85,0003.94,0003.45
2023-12-30 12:08:00,SystemResetWarning,0830.4,5.00,000.00,020.9,019.7,000.0,029.3,022.3,9.1,0000.0,0008.80,0003.93,0003.44
2023-12-30 12:09:00,SystemResetWarning,0830.5,5.00,000.00,020.9,019.7,000.0,029.3,022.2,9.1,0000.0,0008.68,0003.92,0003.43
2023-12-30 12:10:00,SystemResetWarning,0830.5,5.00,000.00,020.9,019.7,000.0,029.3,022.2,9.1,0000.0,0008.66,0003.91,0003.43
2023-12-30 12:11:00,SystemResetWarning,0830.4,5.00,000.00,020.9,019.7,000.0,029.3,022.2,9.1,0000.0,0008.68,0003.88,0003.43
2023-12-30 12:12:00,SystemResetWarning,0830.4,5.01,000.00,020.9,019.7,000.0,029.3,022.2,9.1,0000.0,0008.72,0003.89,0003.43
2023-12-30 12:13:00,SystemResetWarning,0830.4,5.00,000.00,020.9,019.7,000.0,029.3,022.2,9.1,0000.0,0008.17,0003.91,0003.45
2023-12-30 12:14:00,SystemResetWarning,0830.5,5.00,000.00,020.9,019.7,000.0,029.3,022.2,9.1,0000.0,0007.94,0003.97,0003.47
2023-12-30 12:15:00,SystemResetWarning,0830.5,5.00,000.00,020.9,019.7,000.0,029.3,022.2,9.1,0000.0,0007.71,0003.97,0003.50
2023-12-30 12:16:00,SystemResetWarning,0830.5,5.01,000.00,020.9,019.7,000.0,029.2,022.2,9.2,0000.0,0007.70,0004.00,0003.53
2023-12-30 12:17:00,SystemResetWarning,0830.5,5.00,000.00,020.9,019.7,000.0,029.2,022.2,9.2,0000.0,0007.68,0004.03,0003.55
2023-12-30 12:18:00,SystemResetWarning,0830.7,5.00,000.00,020.9,019.7,000.0,029.2,022.2,9.2,0000.0,0007.64,0004.04,0003.57
2023-12-30 12:19:00,SystemResetWarning,0830.7,5.00,000.00,020.8,019.7,000.0,029.2,022.2,9.2,0000.0,0007.66,0004.05,0003.59
2023-12-30 12:20:00,SystemResetWarning,0830.7,5.00,000.00,020.8,019.7,000.0,029.2,022.2,9.2,0000.0,0007.93,0004.09,0003.61
2023-12-30 12:21:00,SystemResetWarning,0830.4,5.00,000.00,020.8,019.7,000.0,029.2,022.2,9.1,0000.0,0007.82,0004.12,0003.63
2023-12-30 12:22:00,SystemResetWarning,0830.8,5.00,000.00,020.8,019.7,000.0,029.2,022.2,9.1,0000.0,0007.59,0004.15,0003.65
2023-12-30 12:23:00,SystemResetWarning,0830.7,4.99,000.00,020.8,019.7,000.0,029.2,022.2,9.1,0000.0,0007.70,0004.18,0003.66
2023-12-30 12:24:00,SystemResetWarning,0830.6,5.00,000.00,020.8,019.7,000.0,029.2,022.2,9.1,0000.0,0007.74,0004.20,0003.68
2023-12-30 12:25:00,SystemResetWarning,0830.5,5.00,000.00,020.8,019.7,000.0,029.2,022.2,9.1,0000.0,0007.63,0004.17,0003.68
2023-12-30 12:26:00,SystemResetWarning,0830.5,5.00,000.00,020.8,019.7,000.0,029.2,022.2,9.1,0000.0,0007.57,0004.16,0003.69
2023-12-30 12:27:00,SystemResetWarning,0830.5,5.00,000.00,020.8,019.7,000.0,029.2,022.2,9.1,0000.0,0007.62,0004.18,0003.69
2023-12-30 12:28:00,SystemResetWarning,0830.6,5.00,000.00,020.8,019.7,000.0,029.2,022.2,9.1,0000.0,0007.58,0004.16,0003.70
2023-12-30 12:29:00,SystemResetWarning,0830.5,5.00,000.00,020.8,019.7,000.0,029.2,022.1,9.1,0000.0,0008.30,0004.16,0003.71
2023-12-30 12:30:00,SystemResetWarning,0830.5,5.00,000.00,020.8,019.7,000.0,029.2,022.1,9.1,0000.0,0008.84,0004.25,0003.73
2023-12-30 12:31:00,SystemResetWarning,0830.4,5.00,000.00,020.8,019.7,000.0,029.2,022.1,9.1,0000.0,0008.61,0004.23,0003.74
2023-12-30 12:32:00,SystemResetWarning,0830.5,5.00,000.00,020.8,019.7,000.0,029.2,022.1,9.1,0000.0,0008.57,0004.23,0003.75
2023-12-30 12:33:00,SystemResetWarning,0830.4,5.00,000.00,020.8,019.7,000.0,029.2,022.1,9.1,0000.0,0008.59,0004.23,0003.76
2023-12-30 12:34:00,SystemResetWarning,0830.5,5.00,000.00,020.8,019.7,000.0,029.1,022.1,9.1,0000.0,0008.58,0004.22,0003.77
2023-12-30 12:35:00,SystemResetWarning,0830.6,5.00,000.00,020.8,019.7,000.0,029.1,022.1,9.1,0000.0,0009.25,0004.23,0003.80
2023-12-30 12:36:00,SystemResetWarning,0830.5,5.01,000.00,020.8,019.6,000.0,029.1,022.1,9.1,0000.0,0009.28,0004.28,0003.84
2023-12-30 12:37:00,SystemResetWarning,0830.6,5.00,000.00,020.8,019.6,000.0,029.1,022.1,9.1,0000.0,0009.41,0004.32,0003.86
2023-12-30 12:38:00,SystemResetWarning,0830.6,5.00,000.00,020.8,019.6,000.0,029.1,022.1,9.1,0000.0,0009.39,0004.34,0003.87
2023-12-30 12:39:00,SystemResetWarning,0830.5,5.00,000.00,020.8,019.6,000.0,029.1,022.1,9.1,0000.0,0009.40,0004.36,0003.88
2023-12-30 12:40:00,SystemResetWarning,0830.6,5.00,000.00,020.8,019.6,000.0,029.1,022.1,9.1,0000.0,0009.16,0004.38,0003.89
2023-12-30 12:41:00,SystemResetWarning,0830.5,5.00,000.00,020.8,019.6,000.0,029.1,022.1,9.1,0000.0,0008.75,0004.33,0003.89
2023-12-30 12:42:00,SystemResetWarning,0830.6,4.99,000.00,020.7,019.6,000.0,029.1,022.1,9.1,0000.0,0008.70,0004.29,0003.88
2023-12-30 12:43:00,SystemResetWarning,0830.6,4.99,000.00,020.7,019.6,000.0,029.1,022.1,9.2,0000.0,0008.96,0004.30,0003.87
2023-12-30 12:44:00,SystemResetWarning,0830.5,5.00,000.00,020.7,019.6,000.0,029.1,022.1,9.2,0000.0,0008.92,0004.29,0003.87
2023-12-30 12:45:00,SystemResetWarning,0830.5,5.01,000.00,020.7,019.6,000.0,029.1,022.1,9.2,0000.0,0009.10,0004.31,0003.87
2023-12-30 12:46:00,SystemResetWarning,0830.6,5.01,000.00,020.7,019.6,000.0,029.1,022.1,9.2,0000.0,0008.46,0004.33,0003.85
2023-12-30 12:47:00,SystemResetWarning,0830.6,5.01,000.00,020.7,019.6,000.0,029.1,022.1,9.2,0000.0,0008.52,0004.31,0003.82
2023-12-30 12:48:00,SystemResetWarning,0830.6,5.00,000.00,020.7,019.6,000.0,029.1,022.0,9.2,0000.0,0008.47,0004.28,0003.81
2023-12-30 12:49:00,SystemResetWarning,0830.6,5.00,000.00,020.7,019.6,000.0,029.1,022.0,9.2,0000.0,0008.63,0004.25,0003.79
2023-12-30 12:50:00,SystemResetWarning,0830.6,4.99,000.00,020.7,019.6,000.0,029.1,022.0,9.2,0000.0,0008.99,0004.21,0003.78
2023-12-30 12:51:00,SystemResetWarning,0830.6,5.00,000.00,020.7,019.6,000.0,029.1,022.0,9.2,0000.0,0008.78,0004.17,0003.76
2023-12-30 12:52:00,SystemResetWarning,0830.6,4.99,000.00,020.7,019.6,000.0,029.0,022.0,9.2,0000.0,0008.99,0004.14,0003.74
2023-12-30 12:53:00,SystemResetWarning,0830.6,5.00,000.00,020.7,019.6,000.0,029.0,022.0,9.2,0000.0,0009.14,0004.14,0003.73
2023-12-30 12:54:00,SystemResetWarning,0830.6,5.00,000.00,020.7,019.6,000.0,029.0,022.0,9.2,0000.0,0008.89,0004.13,0003.71
2023-12-30 12:55:00,SystemResetWarning,0830.6,5.00,000.00,020.7,019.6,000.0,029.0,022.0,9.2,0000.0,0008.89,0004.12,0003.70
2023-12-30 12:56:00,SystemResetWarning,0830.6,5.00,000.00,020.7,019.6,000.0,029.0,022.0,9.2,0000.0,0008.97,0004.11,0003.69
2023-12-30 12:57:00,SystemResetWarning,0830.6,5.00,000.00,020.7,019.6,000.0,029.0,022.0,9.1,0000.0,0009.44,0004.08,0003.68
2023-12-30 12:58:00,SystemResetWarning,0830.7,5.00,000.00,020.7,019.6,000.0,029.0,022.0,9.1,0000.0,0009.35,0004.05,0003.67
2023-12-30 12:59:00,SystemResetWarning,0830.7,5.00,000.00,020.7,019.6,000.0,029.0,022.0,9.1,0000.0,0009.30,0004.04,0003.66
